Regional Weather Roundup
Issued by NWS State College, PA

Home | Current Version | Previous Version | Graphics & Text | Print | Product List | Glossary Off
Versions: 1 2 3 4 5 6 7 8 9 10 11 12 13 14 15 16 17 18 19 20 21 22 23 24 25 26 27 28 29 30 31 32 33 34 35 36 37 38 39 40 41 42 43 44 45 46 47 48 49 50

000
ASUS41 KCTP 220610
RWRCTP

REGIONAL WEATHER ROUNDUP
NATIONAL WEATHER SERVICE STATE COLLEGE PA
200 AM EDT FRI MAY 22 2015

Note: "fair" indicates few or no clouds below 12,000 feet with no
significant weather and/or obstructions to visibility.

* = STATION THAT DOES NOT REPORT PRECIPITATION /E.G. RAIN...SNOW...ETC/
    THUNDER OR FOG.

PAZ002>004-007>009-013>016-020>023-029>032-220700-
WESTERN PENNSYLVANIA

CITY           SKY/WX    TMP DP  RH WIND       PRES   REMARKS
ERIE           CLEAR     51  37  58 SW9       29.96S
MEADVILLE      CLEAR     45  35  68 SW6       29.99S
FRANKLIN*      CLEAR     45  34  65 SW9       30.01S
NEW CASTLE     FAIR      45  40  82 CALM      30.03F
BEAVER COUNTY  NOT AVBL
BUTLER*        CLEAR     41  37  87 W5        30.04S
PITTSBURGH INT CLEAR     46  40  79 W7        30.03F
PITTSBURGH     CLEAR     46  37  71 W9        30.03S
INDIANA*       FOG       45  45 100 CALM      30.06S VSB 1/4
LATROBE        CLEAR     45  45 100 S6        30.06S
WASHINGTON CO* CLEAR     43  39  87 W3        30.07F
$$

PAZ004>006-010>012-017>019-024>028-033>037-041-042-045-046-049>053-220700-
CENTRAL PENNSYLVANIA

CITY           SKY/WX    TMP DP  RH WIND       PRES   REMARKS
BRADFORD       CLEAR     43  32  65 VRB3      29.96S
DUBOIS         CLEAR     42  39  89 SW8       29.98S
CLEARFIELD     CLEAR     44  42  93 S6        29.98F
JOHNSTOWN      CLEAR     42  39  89 W7        30.00S
ALTOONA        CLEAR     45  40  82 W8        30.00F
STATE COLLEGE  PTCLDY    46  42  86 W8        29.97F
WILLIAMSPORT   MOCLDY    50  46  86 W9        29.93S
SELINSGROVE    MOCLDY    50  45  83 CALM      29.94S
FT INDIANTOWN  PTCLDY    52  45  77 W8        29.93S
CAPITAL CITY   PTCLDY    51  44  77 W7        29.95S
HARRISBURG     PTCLDY    53  46  77 W12       29.93F
YORK           MOCLDY    50  46  86 W5        29.95S
$$

PAZ038>040-043-044-047-048-054-055-060>062-067>071-220700-
EASTERN PENNSYLVANIA

CITY           SKY/WX    TMP DP  RH WIND       PRES   REMARKS
SCRANTON       MOCLDY    49  44  83 SW5       29.90S
MOUNT POCONO   CLOUDY    46  41  82 NW6       29.88S
ALLENTOWN      CLOUDY    54  44  69 NW7       29.90S
QUAKERTOWN*    CLOUDY    52  45  76 CALM      29.90F
READING        CLOUDY    53  45  74 NW7       29.91S
LANCASTER      CLOUDY    51  46  83 NW9       29.92F
COATESVILLE    PTCLDY    50  48  93 NW8       29.92S
POTTSTOWN      CLOUDY    51  45  79 VRB3      29.92S
BLUE BELL      CLOUDY    52  46  82 CALM      29.89S
DOYLESTOWN     CLOUDY    50  43  77 CALM      29.89S
WILLOW GROVE   NOT AVBL
NORTH PHILA    CLOUDY    52  47  83 W3        29.91F HAZE
PHILADELPHIA   CLOUDY    53  46  77 W7        29.92S
$$


USA.gov is the U.S. government's official web portal to all federal, state and local government web resources and services.